Time,TemperatureF,DewpointF,PressureIn,WindDirection,WindDirectionDegrees,WindSpeedMPH,WindSpeedGustMPH,Humidity,HourlyPrecipIn,Conditions,Clouds,dailyrainin,SoftwareType,DateUTC
2015-04-26 00:01:00,67.0,61.0,29.62,SSW,198,0.0,-999.0,81,-99.99,,,-99.99,,2015-04-26 05:01:00,
2015-04-26 00:11:00,67.0,61.0,29.62,SSW,198,0.0,-999.0,81,-99.99,,,-99.99,,2015-04-26 05:11:00,
2015-04-26 00:31:00,67.0,61.0,29.62,SSW,198,0.0,-999.0,82,-99.99,,,-99.99,,2015-04-26 05:31:00,
2015-04-26 00:42:00,66.0,60.0,29.61,SSW,198,0.0,-999.0,82,-99.99,,,-99.99,,2015-04-26 05:42:00,
2015-04-26 01:01:00,66.0,60.0,29.62,SSW,198,0.0,-999.0,82,-99.99,,,-99.99,,2015-04-26 06:01:00,
2015-04-26 01:12:00,65.0,60.0,29.61,SSW,198,0.0,-999.0,83,-99.99,,,-99.99,,2015-04-26 06:12:00,
2015-04-26 01:31:00,64.0,59.0,29.61,SSW,198,0.0,-999.0,83,-99.99,,,-99.99,,2015-04-26 06:31:00,
2015-04-26 01:42:00,64.0,59.0,29.61,SSW,198,0.0,-999.0,85,-99.99,,,-99.99,,2015-04-26 06:42:00,
2015-04-26 02:01:00,64.0,60.0,29.61,SSW,198,0.0,-999.0,87,-99.99,,,-99.99,,2015-04-26 07:01:00,
2015-04-26 02:11:00,66.0,63.0,29.60,South,186,0.0,-999.0,90,-99.99,,,-99.99,,2015-04-26 07:11:00,
2015-04-26 02:31:00,68.0,65.0,29.59,SSW,213,1.0,-999.0,91,-99.99,,,-99.99,,2015-04-26 07:31:00,
2015-04-26 02:42:00,69.0,67.0,29.59,SSW,210,0.0,-999.0,92,-99.99,,,-99.99,,2015-04-26 07:42:00,
2015-04-26 03:01:00,69.0,67.0,29.58,South,191,0.0,-999.0,92,-99.99,,,-99.99,,2015-04-26 08:01:00,
2015-04-26 03:11:00,69.0,67.0,29.58,SSW,192,0.0,-999.0,92,-99.99,,,-99.99,,2015-04-26 08:11:00,
2015-04-26 03:31:00,69.0,67.0,29.59,SSW,198,2.0,-999.0,92,-99.99,,,-99.99,,2015-04-26 08:31:00,
2015-04-26 03:41:00,70.0,68.0,29.59,South,180,2.0,-999.0,92,-99.99,,,-99.99,,2015-04-26 08:41:00,
2015-04-26 04:01:00,70.0,68.0,29.59,South,175,1.0,-999.0,93,-99.99,,,-99.99,,2015-04-26 09:01:00,
2015-04-26 04:11:00,70.0,68.0,29.59,SSW,198,1.0,-999.0,92,-99.99,,,-99.99,,2015-04-26 09:11:00,
2015-04-26 04:31:00,70.0,68.0,29.59,South,182,1.0,-999.0,92,-99.99,,,-99.99,,2015-04-26 09:31:00,
2015-04-26 04:41:00,70.0,68.0,29.59,South,176,1.0,-999.0,92,-99.99,,,-99.99,,2015-04-26 09:41:00,
2015-04-26 05:01:00,71.0,68.0,29.59,SSW,208,0.0,-999.0,91,-99.99,,,-99.99,,2015-04-26 10:01:00,
2015-04-26 05:11:00,71.0,68.0,29.59,SSW,209,0.0,-999.0,91,-99.99,,,-99.99,,2015-04-26 10:11:00,
2015-04-26 05:31:00,71.0,68.0,29.58,SW,221,0.0,-999.0,90,-99.99,,,-99.99,,2015-04-26 10:31:00,
2015-04-26 05:41:00,70.0,67.0,29.59,SW,221,0.0,-999.0,90,-99.99,,,-99.99,,2015-04-26 10:41:00,
2015-04-26 06:01:00,69.0,66.0,29.59,SW,221,0.0,-999.0,90,-99.99,,,-99.99,,2015-04-26 11:01:00,
2015-04-26 06:11:00,68.0,65.0,29.60,SW,221,0.0,-999.0,91,-99.99,,,-99.99,,2015-04-26 11:11:00,
2015-04-26 06:31:00,68.0,65.0,29.60,SW,221,0.0,-999.0,91,-99.99,,,-99.99,,2015-04-26 11:31:00,
2015-04-26 06:42:00,67.0,64.0,29.59,SW,221,0.0,-999.0,91,-99.99,,,-99.99,,2015-04-26 11:42:00,
2015-04-26 07:01:00,67.0,65.0,29.61,SW,221,0.0,-999.0,92,-99.99,,,-99.99,,2015-04-26 12:01:00,
2015-04-26 07:11:00,67.0,65.0,29.62,SW,221,0.0,-999.0,92,-99.99,,,-99.99,,2015-04-26 12:11:00,
2015-04-26 07:31:00,66.0,64.0,29.61,SW,221,0.0,-999.0,92,-99.99,,,-99.99,,2015-04-26 12:31:00,
2015-04-26 07:42:00,67.0,65.0,29.63,SW,221,0.0,-999.0,93,-99.99,,,-99.99,,2015-04-26 12:42:00,
2015-04-26 08:01:00,68.0,66.0,29.64,SSW,212,0.0,-999.0,93,-99.99,,,-99.99,,2015-04-26 13:01:00,
2015-04-26 08:11:00,69.0,67.0,29.63,SSW,194,0.0,-999.0,94,-99.99,,,-99.99,,2015-04-26 13:11:00,
2015-04-26 08:31:00,69.0,67.0,29.62,SE,146,0.0,-999.0,94,-99.99,,,-99.99,,2015-04-26 13:31:00,
2015-04-26 08:41:00,69.0,67.0,29.64,SE,138,0.0,-999.0,94,-99.99,,,-99.99,,2015-04-26 13:41:00,
2015-04-26 09:01:00,70.0,68.0,29.64,SSE,151,0.0,-999.0,94,-99.99,,,-99.99,,2015-04-26 14:01:00,
2015-04-26 09:11:00,70.0,68.0,29.65,SE,132,1.0,-999.0,94,-99.99,,,-99.99,,2015-04-26 14:11:00,
2015-04-26 09:31:00,71.0,69.0,29.64,SSE,153,0.0,-999.0,93,-99.99,,,-99.99,,2015-04-26 14:31:00,
2015-04-26 09:41:00,72.0,70.0,29.64,SE,146,0.0,-999.0,92,-99.99,,,-99.99,,2015-04-26 14:41:00,
2015-04-26 10:01:00,71.0,68.0,29.65,South,178,1.0,-999.0,89,-99.99,,,-99.99,,2015-04-26 15:01:00,
2015-04-26 10:11:00,71.0,68.0,29.63,SSE,148,0.0,-999.0,89,-99.99,,,-99.99,,2015-04-26 15:11:00,
2015-04-26 10:31:00,72.0,68.0,29.65,SSE,165,0.0,-999.0,88,-99.99,,,-99.99,,2015-04-26 15:31:00,
2015-04-26 11:31:00,74.0,68.0,29.62,SE,126,1.0,-999.0,82,-99.99,,,-99.99,,2015-04-26 16:31:00,